Tracking 30918 objects as of 2-Jul-2025
HD Live streaming from Space Station
objects crossing your sky now

SL-14 DEB

Track SL-14 DEB now!
10-day predictions


NORAD ID: 26023
Int'l Code: 1991-068AJ
Perigee: 1,459.9 km
Apogee: 1,472.4 km
Inclination: 82.6 °
Period: 115.1 minutes
Semi major axis: 7837 km
RCS: 0.0267 m2 (small)
Launch date: September 28, 1991
Source: Commonwealth of Independent States (former USSR) (CIS)
Launch site: PLESETSK MISSILE AND SPACE COMPLEX (PKMTR)

Note: This is SATELLITE DEBRIS
Your satellite tracking list
SATCOM 3 DEB
Track 1 satellite(s)




NASA's NSSDC Master Catalog

Two Line Element Set (TLE):
1 26023U 91068AJ  25181.48905251  .00000102  00000-0  59166-3 0  9991
2 26023  82.5797 353.9564 0008002 352.3111  65.1402 12.51310419543135
Source of the keplerian elements: AFSPC